Weather in Kolbasa

Russia / Novosibirsk Oblast     56°53′15″N   76°41′53″E
temp.,
°C
wind,
m/s
gust,
m/s
humid.,
%
clouds,
%
prec.,
mm/h
press.,
hPa
HPBL,
m
2 march, tue
tue201:00−17ene2597100 0.1 1015192
04:00−19ene129888 0.1 101526
07:00−20ene119887 0.1 101520
10:00−19ese119896 0.1 101663
13:00−14s129194 0.1 1015364
16:00−12ssw1288100 0.1 1014491
19:00−14s2296100 0.1 101448
22:00−19ssw239986 0.0 101520
3 march, wed
wed301:00−21s2310077 0.0 101537
04:00−21s2310087 0.0 101530
07:00−20s259991 0.1 1015110
10:00−19s489898 0.0 1014248
13:00−14s499599 0.1 1014378
16:00−11s51093100 0.0 1012495
19:00−12s61392100 0.1 1012600
22:00−14s61392100 0.1 1011615
4 march, thu
thu401:00−13s51194100 0.6 1010602
04:00−10s51294100 0.6 1008636
07:00−8s51292100 0.9 1008642
10:00−6s61392100 0.3 1007678
13:00−2ssw61193100 0.4 1006854
16:00−1ssw51093100 0.4 1005892
19:00−1s51197100 1.2 1004852
22:00−2s61395100 0.7 1002800
5 march, fri
fri501:00−2ssw61395100 1.6 1001880
04:00−2ssw61394100 0.8 1000670
07:00−2ssw51197100 2.0 1001727
10:00−5wsw51190100 0.8 1003670
13:00−6wsw5119198 0.8 1006564
16:00−5sw598991 0.0 1008730
19:00−7ssw6138896 0.1 1008675
22:00−7ssw61492100 0.4 10061035
6 march, sat
sat601:00−6sw71493100 0.9 1005969
04:00−5sw71590100 0.4 1004974
07:00−2sw71589100 0.8 10051315
10:00−2wsw61684100 0.3 10061406
13:00−2wsw7147750 0.4 10071300
16:00−2wsw713770 0.0 10091359
19:00−5wsw412840 0.0 1011594
22:00−9sw369013 0.0 1012101